User: anonymous   Login
Location: Unspecified
(0.0000°N, 0.0000°E)
Time: 19:18:01
(UTC+00:00)
Language:

GGSE 3 - Orbit

View from above orbital plane
View from above orbital plane
View from above satellite
View from above satellite

Ground track
Ground track

The orbit data is extracted from the following two-line orbital elements,

1 01292U 65016C   18169.28808286  .00000029  00000-0  55423-4 0  9993
2 01292  70.0777 103.5978 0021510 225.6603 134.2743 14.00531960715994
Epoch (UTC): 18 June 2018 06:54:50
Eccentricity: 0.0021510
inclination: 70.0777°
perigee height: 876 km
apogee height: 907 km
right ascension of ascending node: 103.5978°
argument of perigee: 225.6603°
revolutions per day: 14.00531960
mean anomaly at epoch: 134.2743°
orbit number at epoch: 71599

The dashed part of the orbit path shows where the satellite is in the earth's shadow,  

DLR